"Sample Date","Sample Time","Sample Value","Units","Flow Rate","Laser Status","Micron Size 0","Counts/Channel 0","Micron Size 1","Counts/Channel 1","Micron Size 2","Counts/Channel 2","Micron Size 3","Counts/Channel 3","Micron Size 4","Counts/Channel 4","Micron Size 5","Counts/Channel 5","Micron Size 6","Counts/Channel 6","Micron Size 7","Counts/Channel 7","Micron Size 8","Counts/Channel 8","Micron Size 9","Counts/Channel 9","Micron Size 10","Counts/Channel 10","Micron Size 11","Counts/Channel 11","Micron Size 12","Counts/Channel 12","Micron Size 13","Counts/Channel 13","Micron Size 14","Counts/Channel 14","Micron Size 15","Counts/Channel 15","Micron Size 16","Counts/Channel 16","Micron Size 17","Counts/Channel 17","Micron Size 18","Counts/Channel 18","Micron Size 19","Counts/Channel 19","Micron Size 20","Counts/Channel 20","Micron Size 21","Counts/Channel 21","Micron Size 22","Counts/Channel 22","Micron Size 23","Counts/Channel 23","Micron Size 24","Counts/Channel 24","Micron Size 25","Counts/Channel 25","Micron Size 26","Counts/Channel 26","Micron Size 27","Counts/Channel 27","Micron Size 28","Counts/Channel 28","Micron Size 29","Counts/Channel 29","Micron Size 30","Counts/Channel 30","Micron Size 31","Counts/Channel 31"
"05/03/07","09:00:05",26107.000,"cc",28351.736,1,0.100,20683.000,0.200,4781.000,0.300,592.000,0.500,41.000,1.000,10.000,5.000,0
"05/03/07","09:00:11",26413.000,"cc",28338.445,1,0.100,20918.000,0.200,4867.000,0.300,574.000,0.500,43.000,1.000,11.000,5.000,0
"05/03/07","09:00:17",26640.000,"cc",28253.891,1,0.100,21132.000,0.200,4835.000,0.300,610.000,0.500,49.000,1.000,14.000,5.000,0
"05/03/07","09:00:23",26391.000,"cc",28301.283,1,0.100,20864.000,0.200,4831.000,0.300,648.000,0.500,40.000,1.000,8.000,5.000,0
"05/03/07","09:00:29",26260.000,"cc",28322.354,1,0.100,20902.000,0.200,4707.000,0.300,584.000,0.500,53.000,1.000,14.000,5.000,0
"05/03/07","09:00:35",26422.000,"cc",28335.027,1,0.100,20937.000,0.200,4830.000,0.300,596.000,0.500,48.000,1.000,11.000,5.000,0
"05/03/07","09:00:41",26301.000,"cc",28359.727,1,0.100,20789.000,0.200,4850.000,0.300,600.000,0.500,48.000,1.000,14.000,5.000,0
"05/03/07","09:00:47",26224.000,"cc",28309.516,1,0.100,20760.000,0.200,4865.000,0.300,529.000,0.500,58.000,1.000,12.000,5.000,0
"05/03/07","09:00:53",26182.000,"cc",28303.178,1,0.100,20698.000,0.200,4868.000,0.300,553.000,0.500,56.000,1.000,7.000,5.000,0
"05/03/07","09:00:59",26616.000,"cc",28329.859,1,0.100,21020.000,0.200,4949.000,0.300,593.000,0.500,46.000,1.000,8.000,5.000,0
"05/03/07","09:01:05",26758.000,"cc",28306.588,1,0.100,21142.000,0.200,4946.000,0.300,607.000,0.500,49.000,1.000,14.000,5.000,0
"05/03/07","09:01:11",26870.000,"cc",28368.051,1,0.100,21073.000,0.200,5125.000,0.300,611.000,0.500,51.000,1.000,10.000,5.000,0
"05/03/07","09:01:17",26699.000,"cc",28330.648,1,0.100,21068.000,0.200,4992.000,0.300,593.000,0.500,42.000,1.000,4.000,5.000,0
"05/03/07","09:01:23",26826.000,"cc",28254.557,1,0.100,21206.000,0.200,4938.000,0.300,624.000,0.500,49.000,1.000,9.000,5.000,0
"05/03/07","09:01:29",26709.000,"cc",28313.482,1,0.100,21219.000,0.200,4878.000,0.300,551.000,0.500,50.000,1.000,11.000,5.000,0
"05/03/07","09:01:35",26741.000,"cc",28371.576,1,0.100,21107.000,0.200,4945.000,0.300,626.000,0.500,48.000,1.000,15.000,5.000,0
"05/03/07","09:01:41",26645.000,"cc",28294.127,1,0.100,21035.000,0.200,4971.000,0.300,577.000,0.500,52.000,1.000,10.000,5.000,0
"05/03/07","09:01:47",26911.000,"cc",28322.361,1,0.100,21307.000,0.200,4960.000,0.300,587.000,0.500,46.000,1.000,11.000,5.000,0
"05/03/07","09:01:53",27020.000,"cc",28289.938,1,0.100,21340.000,0.200,5025.000,0.300,593.000,0.500,51.000,1.000,11.000,5.000,0
"05/03/07","09:01:59",27184.000,"cc",28322.807,1,0.100,21437.000,0.200,5122.000,0.300,584.000,0.500,27.000,1.000,14.000,5.000,0
"05/03/07","09:02:05",27052.000,"cc",28350.658,1,0.100,21468.000,0.200,4926.000,0.300,602.000,0.500,47.000,1.000,9.000,5.000,0
"05/03/07","09:02:11",27006.000,"cc",28322.906,1,0.100,21322.000,0.200,5043.000,0.300,581.000,0.500,51.000,1.000,9.000,5.000,0
"05/03/07","09:02:17",27468.000,"cc",28314.170,1,0.100,21661.000,0.200,5135.000,0.300,627.000,0.500,37.000,1.000,8.000,5.000,0
"05/03/07","09:02:23",27007.000,"cc",28301.592,1,0.100,21323.000,0.200,4996.000,0.300,637.000,0.500,41.000,1.000,10.000,5.000,0
"05/03/07","09:02:29",26939.000,"cc",28282.879,1,0.100,21236.000,0.200,5014.000,0.300,629.000,0.500,50.000,1.000,10.000,5.000,0
"05/03/07","09:02:35",27126.000,"cc",28291.072,1,0.100,21308.000,0.200,5138.000,0.300,616.000,0.500,47.000,1.000,17.000,5.000,0
"05/03/07","09:02:41",27138.000,"cc",28350.420,1,0.100,21459.000,0.200,5005.000,0.300,604.000,0.500,60.000,1.000,10.000,5.000,0
"05/03/07","09:02:47",27299.000,"cc",28333.193,1,0.100,21597.000,0.200,5076.000,0.300,564.000,0.500,49.000,1.000,13.000,5.000,0
"05/03/07","09:02:53",27366.000,"cc",28320.180,1,0.100,21629.000,0.200,5036.000,0.300,641.000,0.500,45.000,1.000,15.000,5.000,0
"05/03/07","09:02:59",27628.000,"cc",28301.703,1,0.100,21955.000,0.200,5010.000,0.300,604.000,0.500,49.000,1.000,10.000,5.000,0
"05/03/07","09:03:05",27431.000,"cc",28322.758,1,0.100,21631.000,0.200,5105.000,0.300,627.000,0.500,57.000,1.000,11.000,5.000,0
"05/03/07","09:03:11",27311.000,"cc",28291.295,1,0.100,21606.000,0.200,5022.000,0.300,620.000,0.500,50.000,1.000,13.000,5.000,0
"05/03/07","09:03:17",27782.000,"cc",28295.992,1,0.100,21851.000,0.200,5228.000,0.300,636.000,0.500,56.000,1.000,11.000,5.000,0
"05/03/07","09:03:23",27975.000,"cc",28355.193,1,0.100,22182.000,0.200,5094.000,0.300,652.000,0.500,40.000,1.000,7.000,5.000,0
"05/03/07","09:03:29",28152.000,"cc",28329.695,1,0.100,22349.000,0.200,5172.000,0.300,588.000,0.500,40.000,1.000,3.000,5.000,0
"05/03/07","09:03:35",27984.000,"cc",28340.008,1,0.100,22104.000,0.200,5194.000,0.300,639.000,0.500,37.000,1.000,10.000,5.000,0
"05/03/07","09:03:41",27786.000,"cc",28323.389,1,0.100,21989.000,0.200,5138.000,0.300,613.000,0.500,37.000,1.000,9.000,5.000,0
"05/03/07","09:03:47",27660.000,"cc",28284.596,1,0.100,22048.000,0.200,4912.000,0.300,627.000,0.500,62.000,1.000,11.000,5.000,0
"05/03/07","09:03:53",28108.000,"cc",28300.250,1,0.100,22360.000,0.200,5060.000,0.300,615.000,0.500,58.000,1.000,15.000,5.000,0
"05/03/07","09:03:59",28209.000,"cc",28382.652,1,0.100,22365.000,0.200,5145.000,0.300,647.000,0.500,45.000,1.000,7.000,5.000,0
"05/03/07","09:04:05",28133.000,"cc",28291.807,1,0.100,22194.000,0.200,5182.000,0.300,684.000,0.500,66.000,1.000,7.000,5.000,0
"05/03/07","09:04:11",28346.000,"cc",28259.873,1,0.100,22127.000,0.200,5460.000,0.300,689.000,0.500,57.000,1.000,13.000,5.000,0
"05/03/07","09:04:17",28621.000,"cc",28258.990,1,0.100,22732.000,0.200,5213.000,0.300,618.000,0.500,49.000,1.000,9.000,5.000,0
"05/03/07","09:04:23",28518.000,"cc",28347.623,1,0.100,22519.000,0.200,5304.000,0.300,631.000,0.500,48.000,1.000,16.000,5.000,0
"05/03/07","09:04:29",28469.000,"cc",28351.176,1,0.100,22509.000,0.200,5213.000,0.300,682.000,0.500,51.000,1.000,14.000,5.000,0
"05/03/07","09:04:35",28829.000,"cc",28327.897,1,0.100,22823.000,0.200,5217.000,0.300,717.000,0.500,53.000,1.000,19.000,5.000,0
"05/03/07","09:04:41",28790.000,"cc",28343.184,1,0.100,22801.000,0.200,5250.000,0.300,672.000,0.500,48.000,1.000,19.000,5.000,0
"05/03/07","09:04:47",29177.000,"cc",28311.676,1,0.100,23122.000,0.200,5388.000,0.300,606.000,0.500,48.000,1.000,13.000,5.000,0
"05/03/07","09:04:53",28735.000,"cc",28279.195,1,0.100,22655.000,0.200,5354.000,0.300,679.000,0.500,40.000,1.000,7.000,5.000,0
"05/03/07","09:04:59",29286.000,"cc",28308.424,1,0.100,23259.000,0.200,5339.000,0.300,637.000,0.500,41.000,1.000,10.000,5.000,0
"05/03/07","09:05:05",29477.000,"cc",28343.803,1,0.100,23344.000,0.200,5413.000,0.300,662.000,0.500,51.000,1.000,7.000,5.000,0
"05/03/07","09:05:11",29568.000,"cc",28308.131,1,0.100,23445.000,0.200,5401.000,0.300,662.000,0.500,47.000,1.000,13.000,5.000,0
"05/03/07","09:05:17",29463.000,"cc",28360.033,1,0.100,23216.000,0.200,5510.000,0.300,687.000,0.500,41.000,1.000,9.000,5.000,0
"05/03/07","09:05:23",29770.000,"cc",28359.910,1,0.100,23507.000,0.200,5503.000,0.300,694.000,0.500,54.000,1.000,12.000,5.000,0
"05/03/07","09:05:29",29556.000,"cc",28260.438,1,0.100,23335.000,0.200,5461.000,0.300,691.000,0.500,57.000,1.000,12.000,5.000,0
"05/03/07","09:05:35",30059.000,"cc",28308.426,1,0.100,23717.000,0.200,5606.000,0.300,698.000,0.500,35.000,1.000,3.000,5.000,0
"05/03/07","09:05:41",30147.000,"cc",28329.158,1,0.100,23890.000,0.200,5495.000,0.300,710.000,0.500,42.000,1.000,10.000,5.000,0
"05/03/07","09:05:47",30505.000,"cc",28258.119,1,0.100,23991.000,0.200,5765.000,0.300,688.000,0.500,52.000,1.000,9.000,5.000,0
"05/03/07","09:05:53",30476.000,"cc",28346.000,1,0.100,24072.000,0.200,5641.000,0.300,701.000,0.500,50.000,1.000,12.000,5.000,0
"05/03/07","09:05:59",30769.000,"cc",28275.838,1,0.100,24316.000,0.200,5736.000,0.300,660.000,0.500,51.000,1.000,6.000,5.000,0
"05/03/07","09:06:05",30562.000,"cc",28340.844,1,0.100,24244.000,0.200,5583.000,0.300,678.000,0.500,42.000,1.000,15.000,5.000,0
"05/03/07","09:06:11",30743.000,"cc",28364.219,1,0.100,24183.000,0.200,5813.000,0.300,686.000,0.500,48.000,1.000,13.000,5.000,0
"05/03/07","09:06:17",30727.000,"cc",28282.051,1,0.100,24242.000,0.200,5727.000,0.300,696.000,0.500,54.000,1.000,8.000,5.000,0
"05/03/07","09:06:23",30854.000,"cc",28342.754,1,0.100,24475.000,0.200,5622.000,0.300,699.000,0.500,55.000,1.000,3.000,5.000,0
"05/03/07","09:06:29",30831.000,"cc",28318.045,1,0.100,24524.000,0.200,5576.000,0.300,677.000,0.500,41.000,1.000,13.000,5.000,0
"05/03/07","09:06:35",30878.000,"cc",28278.754,1,0.100,24406.000,0.200,5726.000,0.300,708.000,0.500,34.000,1.000,4.000,5.000,0
"05/03/07","09:06:41",31112.000,"cc",28280.367,1,0.100,24679.000,0.200,5693.000,0.300,682.000,0.500,45.000,1.000,13.000,5.000,0
"05/03/07","09:06:47",31046.000,"cc",28396.051,1,0.100,24509.000,0.200,5835.000,0.300,662.000,0.500,34.000,1.000,6.000,5.000,0
"05/03/07","09:06:53",31392.000,"cc",28330.518,1,0.100,24761.000,0.200,5877.000,0.300,715.000,0.500,34.000,1.000,5.000,5.000,0
"05/03/07","09:06:59",31194.000,"cc",28293.162,1,0.100,24562.000,0.200,5880.000,0.300,717.000,0.500,30.000,1.000,5.000,5.000,0
"05/03/07","09:07:05",31032.000,"cc",28318.682,1,0.100,24637.000,0.200,5621.000,0.300,734.000,0.500,37.000,1.000,3.000,5.000,0
"05/03/07","09:07:11",31090.000,"cc",28322.115,1,0.100,24612.000,0.200,5766.000,0.300,654.000,0.500,49.000,1.000,9.000,5.000,0
"05/03/07","09:07:17",31378.000,"cc",28298.328,1,0.100,24818.000,0.200,5810.000,0.300,703.000,0.500,42.000,1.000,5.000,5.000,0
"05/03/07","09:07:23",31264.000,"cc",28327.291,1,0.100,24809.000,0.200,5662.000,0.300,747.000,0.500,43.000,1.000,3.000,5.000,0
"05/03/07","09:07:29",31287.000,"cc",28324.033,1,0.100,24648.000,0.200,5880.000,0.300,712.000,0.500,40.000,1.000,7.000,5.000,0
"05/03/07","09:07:35",30979.000,"cc",28347.852,1,0.100,24566.000,0.200,5643.000,0.300,720.000,0.500,42.000,1.000,8.000,5.000,0
"05/03/07","09:07:41",31342.000,"cc",28279.272,1,0.100,24710.000,0.200,5862.000,0.300,707.000,0.500,57.000,1.000,6.000,5.000,0
"05/03/07","09:07:47",30971.000,"cc",28277.953,1,0.100,24486.000,0.200,5709.000,0.300,717.000,0.500,43.000,1.000,16.000,5.000,0
"05/03/07","09:07:53",30950.000,"cc",28346.988,1,0.100,24351.000,0.200,5841.000,0.300,703.000,0.500,44.000,1.000,11.000,5.000,0
"05/03/07","09:07:59",30963.000,"cc",28330.057,1,0.100,24583.000,0.200,5637.000,0.300,687.000,0.500,44.000,1.000,12.000,5.000,0
"05/03/07","09:08:05",31158.000,"cc",28293.533,1,0.100,24624.000,0.200,5709.000,0.300,755.000,0.500,61.000,1.000,9.000,5.000,0
"05/03/07","09:08:11",30792.000,"cc",28377.223,1,0.100,24338.000,0.200,5741.000,0.300,665.000,0.500,40.000,1.000,8.000,5.000,0
"05/03/07","09:08:17",31158.000,"cc",28283.676,1,0.100,24483.000,0.200,5915.000,0.300,685.000,0.500,53.000,1.000,22.000,5.000,0
"05/03/07","09:08:23",31017.000,"cc",28313.969,1,0.100,24506.000,0.200,5758.000,0.300,675.000,0.500,69.000,1.000,9.000,5.000,0
"05/03/07","09:08:29",30718.000,"cc",28311.033,1,0.100,24339.000,0.200,5639.000,0.300,680.000,0.500,44.000,1.000,16.000,5.000,0
"05/03/07","09:08:35",30958.000,"cc",28335.303,1,0.100,24585.000,0.200,5586.000,0.300,726.000,0.500,52.000,1.000,9.000,5.000,0
"05/03/07","09:08:41",31010.000,"cc",28325.766,1,0.100,24483.000,0.200,5740.000,0.300,728.000,0.500,53.000,1.000,6.000,5.000,0
"05/03/07","09:08:47",30976.000,"cc",28317.490,1,0.100,24471.000,0.200,5769.000,0.300,674.000,0.500,53.000,1.000,9.000,5.000,0
"05/03/07","09:08:53",30772.000,"cc",28291.756,1,0.100,24343.000,0.200,5715.000,0.300,659.000,0.500,47.000,1.000,8.000,5.000,0
"05/03/07","09:08:59",31226.000,"cc",28332.914,1,0.100,24795.000,0.200,5634.000,0.300,750.000,0.500,38.000,1.000,9.000,5.000,0
"05/03/07","09:09:05",30636.000,"cc",28282.195,1,0.100,24170.000,0.200,5698.000,0.300,719.000,0.500,43.000,1.000,6.000,5.000,0
"05/03/07","09:09:11",30792.000,"cc",28369.793,1,0.100,24511.000,0.200,5570.000,0.300,643.000,0.500,51.000,1.000,17.000,5.000,0
"05/03/07","09:09:17",30620.000,"cc",28317.514,1,0.100,24141.000,0.200,5717.000,0.300,700.000,0.500,53.000,1.000,9.000,5.000,0
"05/03/07","09:09:23",30849.000,"cc",28275.690,1,0.100,24371.000,0.200,5688.000,0.300,727.000,0.500,51.000,1.000,12.000,5.000,0
"05/03/07","09:09:29",31030.000,"cc",28305.277,1,0.100,24602.000,0.200,5709.000,0.300,673.000,0.500,33.000,1.000,13.000,5.000,0
"05/03/07","09:09:35",31103.000,"cc",28301.920,1,0.100,24694.000,0.200,5646.000,0.300,716.000,0.500,36.000,1.000,11.000,5.000,0
"05/03/07","09:09:41",30776.000,"cc",28292.020,1,0.100,24309.000,0.200,5660.000,0.300,732.000,0.500,61.000,1.000,14.000,5.000,0
"05/03/07","09:09:47",30673.000,"cc",28315.232,1,0.100,24202.000,0.200,5736.000,0.300,681.000,0.500,44.000,1.000,10.000,5.000,0
"05/03/07","09:09:53",31183.000,"cc",28364.906,1,0.100,24566.000,0.200,5828.000,0.300,726.000,0.500,56.000,1.000,7.000,5.000,0
"05/03/07","09:09:59",30784.000,"cc",28338.330,1,0.100,24358.000,0.200,5749.000,0.300,622.000,0.500,48.000,1.000,7.000,5.000,0
"05/03/07","09:10:05",30568.000,"cc",28295.865,1,0.100,24018.000,0.200,5746.000,0.300,734.000,0.500,59.000,1.000,11.000,5.000,0
"05/03/07","09:10:11",30575.000,"cc",28329.893,1,0.100,24206.000,0.200,5645.000,0.300,650.000,0.500,59.000,1.000,15.000,5.000,0
"05/03/07","09:10:17",30569.000,"cc",28331.883,1,0.100,24221.000,0.200,5599.000,0.300,679.000,0.500,51.000,1.000,19.000,5.000,0
"05/03/07","09:10:23",30917.000,"cc",28320.154,1,0.100,24393.000,0.200,5746.000,0.300,715.000,0.500,45.000,1.000,18.000,5.000,0
"05/03/07","09:10:29",30832.000,"cc",28336.924,1,0.100,24316.000,0.200,5770.000,0.300,678.000,0.500,54.000,1.000,14.000,5.000,0
"05/03/07","09:10:35",30754.000,"cc",28283.309,1,0.100,24381.000,0.200,5625.000,0.300,696.000,0.500,44.000,1.000,8.000,5.000,0
"05/03/07","09:10:41",30908.000,"cc",28354.977,1,0.100,24381.000,0.200,5745.000,0.300,720.000,0.500,54.000,1.000,8.000,5.000,0
"05/03/07","09:10:47",31204.000,"cc",28323.336,1,0.100,24808.000,0.200,5642.000,0.300,691.000,0.500,51.000,1.000,12.000,5.000,0
"05/03/07","09:10:53",31086.000,"cc",28306.041,1,0.100,24494.000,0.200,5843.000,0.300,679.000,0.500,56.000,1.000,14.000,5.000,0
"05/03/07","09:10:59",30522.000,"cc",28302.553,1,0.100,24196.000,0.200,5565.000,0.300,697.000,0.500,51.000,1.000,13.000,5.000,0
"05/03/07","09:11:05",30291.000,"cc",28285.106,1,0.100,23927.000,0.200,5572.000,0.300,725.000,0.500,50.000,1.000,17.000,5.000,0
"05/03/07","09:11:11",30949.000,"cc",28316.207,1,0.100,24635.000,0.200,5600.000,0.300,644.000,0.500,57.000,1.000,13.000,5.000,0
"05/03/07","09:11:17",30877.000,"cc",28360.045,1,0.100,24445.000,0.200,5673.000,0.300,684.000,0.500,59.000,1.000,16.000,5.000,0
"05/03/07","09:11:23",30972.000,"cc",28315.658,1,0.100,24508.000,0.200,5667.000,0.300,729.000,0.500,60.000,1.000,8.000,5.000,0
"05/03/07","09:11:29",30935.000,"cc",28316.100,1,0.100,24552.000,0.200,5675.000,0.300,654.000,0.500,44.000,1.000,10.000,5.000,0
"05/03/07","09:11:35",31129.000,"cc",28280.268,1,0.100,24565.000,0.200,5786.000,0.300,704.000,0.500,64.000,1.000,10.000,5.000,0
"05/03/07","09:11:41",30920.000,"cc",28318.988,1,0.100,24492.000,0.200,5634.000,0.300,724.000,0.500,53.000,1.000,17.000,5.000,0
"05/03/07","09:11:47",30942.000,"cc",28318.748,1,0.100,24467.000,0.200,5725.000,0.300,697.000,0.500,43.000,1.000,10.000,5.000,0
"05/03/07","09:11:53",30786.000,"cc",28309.459,1,0.100,24208.000,0.200,5874.000,0.300,654.000,0.500,46.000,1.000,4.000,5.000,0
"05/03/07","09:11:59",30836.000,"cc",28336.162,1,0.100,24351.000,0.200,5697.000,0.300,720.000,0.500,58.000,1.000,10.000,5.000,0
"05/03/07","09:12:05",30867.000,"cc",28296.588,1,0.100,24341.000,0.200,5749.000,0.300,704.000,0.500,66.000,1.000,7.000,5.000,0
"05/03/07","09:12:11",30863.000,"cc",28327.498,1,0.100,24542.000,0.200,5620.000,0.300,650.000,0.500,42.000,1.000,9.000,5.000,0
"05/03/07","09:12:17",30882.000,"cc",28289.467,1,0.100,24450.000,0.200,5661.000,0.300,736.000,0.500,32.000,1.000,3.000,5.000,0
"05/03/07","09:12:23",30827.000,"cc",28298.637,1,0.100,24381.000,0.200,5722.000,0.300,658.000,0.500,56.000,1.000,10.000,5.000,0
"05/03/07","09:12:29",30506.000,"cc",28340.486,1,0.100,24214.000,0.200,5552.000,0.300,684.000,0.500,45.000,1.000,11.000,5.000,0
"05/03/07","09:12:35",30103.000,"cc",28349.752,1,0.100,23833.000,0.200,5550.000,0.300,674.000,0.500,40.000,1.000,6.000,5.000,0
"05/03/07","09:12:41",30736.000,"cc",28328.570,1,0.100,24293.000,0.200,5713.000,0.300,676.000,0.500,41.000,1.000,13.000,5.000,0
"05/03/07","09:12:47",30500.000,"cc",28303.900,1,0.100,24068.000,0.200,5645.000,0.300,722.000,0.500,51.000,1.000,14.000,5.000,0
"05/03/07","09:12:53",30421.000,"cc",28310.174,1,0.100,24066.000,0.200,5666.000,0.300,629.000,0.500,50.000,1.000,10.000,5.000,0
"05/03/07","09:12:59",30338.000,"cc",28308.463,1,0.100,23998.000,0.200,5588.000,0.300,685.000,0.500,50.000,1.000,17.000,5.000,0
"05/03/07","09:13:05",29720.000,"cc",28280.047,1,0.100,23562.000,0.200,5376.000,0.300,696.000,0.500,62.000,1.000,24.000,5.000,0
"05/03/07","09:13:11",30056.000,"cc",28340.332,1,0.100,23712.000,0.200,5667.000,0.300,602.000,0.500,59.000,1.000,16.000,5.000,0
"05/03/07","09:13:17",29741.000,"cc",28371.201,1,0.100,23609.000,0.200,5364.000,0.300,700.000,0.500,52.000,1.000,16.000,5.000,0
"05/03/07","09:13:23",30063.000,"cc",28324.225,1,0.100,23729.000,0.200,5591.000,0.300,668.000,0.500,62.000,1.000,13.000,5.000,0
"05/03/07","09:13:29",29617.000,"cc",28308.813,1,0.100,23265.000,0.200,5643.000,0.300,633.000,0.500,66.000,1.000,10.000,5.000,0
"05/03/07","09:13:35",29161.000,"cc",28271.498,1,0.100,23067.000,0.200,5368.000,0.300,650.000,0.500,57.000,1.000,19.000,5.000,0
"05/03/07","09:13:41",29529.000,"cc",28308.150,1,0.100,23285.000,0.200,5474.000,0.300,679.000,0.500,65.000,1.000,26.000,5.000,0
"05/03/07","09:13:47",29824.000,"cc",28361.602,1,0.100,23558.000,0.200,5484.000,0.300,708.000,0.500,60.000,1.000,14.000,5.000,0
"05/03/07","09:13:53",29690.000,"cc",28298.541,1,0.100,23499.000,0.200,5467.000,0.300,659.000,0.500,54.000,1.000,11.000,5.000,0
"05/03/07","09:13:59",29730.000,"cc",28294.242,1,0.100,23440.000,0.200,5550.000,0.300,667.000,0.500,63.000,1.000,10.000,5.000,0
"05/03/07","09:14:05",29862.000,"cc",28346.246,1,0.100,23538.000,0.200,5579.000,0.300,676.000,0.500,55.000,1.000,14.000,5.000,0
"05/03/07","09:14:11",29176.000,"cc",28323.656,1,0.100,23031.000,0.200,5393.000,0.300,671.000,0.500,66.000,1.000,15.000,5.000,0
"05/03/07","09:14:17",29117.000,"cc",28293.277,1,0.100,23017.000,0.200,5385.000,0.300,634.000,0.500,62.000,1.000,19.000,5.000,0
"05/03/07","09:14:23",29051.000,"cc",28244.668,1,0.100,22824.000,0.200,5450.000,0.300,685.000,0.500,70.000,1.000,22.000,5.000,0
"05/03/07","09:14:29",29475.000,"cc",28294.881,1,0.100,23315.000,0.200,5431.000,0.300,649.000,0.500,64.000,1.000,16.000,5.000,0
"05/03/07","09:14:35",29393.000,"cc",28351.738,1,0.100,23138.000,0.200,5435.000,0.300,727.000,0.500,71.000,1.000,22.000,5.000,0
"05/03/07","09:14:41",29011.000,"cc",28346.172,1,0.100,22853.000,0.200,5426.000,0.300,654.000,0.500,61.000,1.000,17.000,5.000,0
"05/03/07","09:14:47",29263.000,"cc",28331.541,1,0.100,23114.000,0.200,5435.000,0.300,640.000,0.500,58.000,1.000,16.000,5.000,0
"05/03/07","09:14:53",28863.000,"cc",28304.139,1,0.100,22793.000,0.200,5395.000,0.300,608.000,0.500,56.000,1.000,11.000,5.000,0
"05/03/07","09:14:59",28876.000,"cc",28296.080,1,0.100,22686.000,0.200,5455.000,0.300,642.000,0.500,73.000,1.000,20.000,5.000,0
"05/03/07","09:15:05",29036.000,"cc",28357.606,1,0.100,22912.000,0.200,5370.000,0.300,676.000,0.500,60.000,1.000,18.000,5.000,0
"05/03/07","09:15:11",28970.000,"cc",28298.027,1,0.100,22962.000,0.200,5262.000,0.300,678.000,0.500,49.000,1.000,19.000,5.000,0
"05/03/07","09:15:17",28851.000,"cc",28349.307,1,0.100,22695.000,0.200,5425.000,0.300,670.000,0.500,48.000,1.000,13.000,5.000,0
"05/03/07","09:15:23",28733.000,"cc",28328.607,1,0.100,22663.000,0.200,5392.000,0.300,603.000,0.500,59.000,1.000,16.000,5.000,0
"05/03/07","09:15:29",28958.000,"cc",28294.311,1,0.100,22841.000,0.200,5390.000,0.300,666.000,0.500,50.000,1.000,11.000,5.000,0
"05/03/07","09:15:35",28823.000,"cc",28306.686,1,0.100,22792.000,0.200,5259.000,0.300,695.000,0.500,61.000,1.000,16.000,5.000,0
"05/03/07","09:15:41",28616.000,"cc",28344.643,1,0.100,22660.000,0.200,5227.000,0.300,660.000,0.500,60.000,1.000,9.000,5.000,0
"05/03/07","09:15:47",28583.000,"cc",28289.488,1,0.100,22667.000,0.200,5197.000,0.300,631.000,0.500,72.000,1.000,16.000,5.000,0
"05/03/07","09:15:53",28177.000,"cc",28331.647,1,0.100,22155.000,0.200,5317.000,0.300,629.000,0.500,58.000,1.000,18.000,5.000,0
"05/03/07","09:15:59",28697.000,"cc",28328.279,1,0.100,22677.000,0.200,5328.000,0.300,630.000,0.500,55.000,1.000,7.000,5.000,0
"05/03/07","09:16:05",28786.000,"cc",28324.295,1,0.100,22672.000,0.200,5352.000,0.300,683.000,0.500,63.000,1.000,16.000,5.000,0
"05/03/07","09:16:11",28688.000,"cc",28328.461,1,0.100,22599.000,0.200,5392.000,0.300,631.000,0.500,44.000,1.000,22.000,5.000,0
"05/03/07","09:16:17",28204.000,"cc",28282.887,1,0.100,22261.000,0.200,5228.000,0.300,622.000,0.500,67.000,1.000,26.000,5.000,0
"05/03/07","09:16:23",28473.000,"cc",28355.840,1,0.100,22458.000,0.200,5310.000,0.300,623.000,0.500,65.000,1.000,17.000,5.000,0
"05/03/07","09:16:29",28507.000,"cc",28267.320,1,0.100,22530.000,0.200,5295.000,0.300,614.000,0.500,55.000,1.000,13.000,5.000,0
"05/03/07","09:16:35",28700.000,"cc",28341.607,1,0.100,22721.000,0.200,5235.000,0.300,664.000,0.500,60.000,1.000,20.000,5.000,0
"05/03/07","09:16:41",28743.000,"cc",28300.318,1,0.100,22592.000,0.200,5402.000,0.300,672.000,0.500,63.000,1.000,14.000,5.000,0
"05/03/07","09:16:47",28620.000,"cc",28312.186,1,0.100,22621.000,0.200,5240.000,0.300,674.000,0.500,66.000,1.000,19.000,5.000,0
"05/03/07","09:16:53",28988.000,"cc",28316.816,1,0.100,22944.000,0.200,5355.000,0.300,627.000,0.500,47.000,1.000,15.000,5.000,0
"05/03/07","09:16:59",29276.000,"cc",28314.174,1,0.100,23030.000,0.200,5543.000,0.300,640.000,0.500,50.000,1.000,13.000,5.000,0
"05/03/07","09:17:05",29490.000,"cc",28303.447,1,0.100,23357.000,0.200,5396.000,0.300,670.000,0.500,58.000,1.000,9.000,5.000,0
"05/03/07","09:17:11",29226.000,"cc",28325.311,1,0.100,23142.000,0.200,5378.000,0.300,649.000,0.500,44.000,1.000,13.000,5.000,0
"05/03/07","09:17:17",29312.000,"cc",28295.602,1,0.100,23132.000,0.200,5526.000,0.300,591.000,0.500,48.000,1.000,15.000,5.000,0
"05/03/07","09:17:23",28879.000,"cc",28369.379,1,0.100,22778.000,0.200,5369.000,0.300,673.000,0.500,52.000,1.000,7.000,5.000,0
"05/03/07","09:17:29",28590.000,"cc",28341.727,1,0.100,22670.000,0.200,5194.000,0.300,653.000,0.500,57.000,1.000,16.000,5.000,0
"05/03/07","09:17:35",28663.000,"cc",28235.203,1,0.100,22552.000,0.200,5445.000,0.300,608.000,0.500,45.000,1.000,13.000,5.000,0